Location: Joplin
(37.0842°N, 94.5131°W)
Time: 00:53:23
(UTC-06:00)

Tiangong 2 - Visible Passes

Search period start: 22 January 2019 00:00
Search period end: 01 February 2019 00:00
Orbit: 380 x 392 km, 42.8° (Epoch: 21 January)

Date Brightness Start Highest point End Pass type
(mag) Time Alt. Az. Time Alt. Az. Time Alt. Az.
22 Jan 2.4 06:13:58 23° NNW 06:15:00 28° N 06:17:50 10° ENE visible
23 Jan 3.8 05:17:41 16° NE 05:17:41 16° NE 05:18:37 10° ENE visible
23 Jan 1.9 06:49:58 10° WNW 06:53:02 42° NNE 06:56:06 10° E visible
24 Jan 2.2 05:53:39 32° N 05:53:53 32° N 05:56:49 10° ENE visible
25 Jan 4.5 04:57:22 11° ENE 04:57:22 11° ENE 04:57:31 10° ENE visible
25 Jan 1.3 06:29:37 18° WNW 06:31:49 65° NNE 06:34:59 10° ESE visible
26 Jan 2.4 05:33:22 37° NE 05:33:22 37° NE 05:35:47 10° E visible
27 Jan 1.1 06:09:24 37° WNW 06:10:30 72° SSW 06:13:41 10° ESE visible
28 Jan 3.5 05:13:14 23° E 05:13:14 23° E 05:14:37 10° ESE visible
28 Jan 2.9 06:45:35 10° W 06:48:01 20° SW 06:50:25 10° SSE visible
29 Jan 2.0 05:49:24 36° SSW 05:49:24 36° SSW 05:52:03 10° SE visible
30 Jan 3.6 06:25:53 10° SW 06:26:26 10° SW 06:27:00 10° SSW visible
31 Jan 3.9 05:29:41 11° S 05:29:41 11° S 05:29:57 10° SSE visible
